Wetbulb
46.35 46.18 46.25 46.05 46.25 47.16 45.82 42.17 33.80 45.96 49.58 39.52 37.56 34.15 40.15 43.73 43.45 44.98 42.43 42.20 41.30 38.97 39.34 37.74 36.21 35.73 37.43 40.78 40.61 36.12 37.32 33.72 29.78 34.22 39.97 41.30 38.98 35.45 31.41 22.63 19.85 27.57 23.05 23.12
46.41 46.12 46.00 45.73 46.08 46.28 43.29 39.36 38.32 47.35 51.01 32.21 30.87 37.96 40.32 41.61 41.58 41.23 41.75 40.88 41.80 41.15 38.49 34.51 37.08 37.21 41.19 40.79 38.23 33.98 36.09 31.23 26.22 29.68 32.08 36.19 34.81 37.00 36.43 33.05 30.00 27.10 22.55 25.78
46.38 46.02 45.85 45.51 45.54 46.24 44.89 40.73 33.41 41.43 48.43 40.72 33.79 33.25 36.03 38.19 41.73 41.51 42.62 41.39 41.94 39.18 37.85 39.03 35.90 36.73 40.98 41.95 40.33 44.40 40.97 33.52 29.51 24.23 29.35 32.81 30.82 33.68 35.63 32.18 21.38 24.62 30.28 33.74
46.48 45.87 45.54 45.27 45.40 46.99 45.48 41.79 35.84 41.91 38.69 41.80 38.21 37.01 36.80 36.63 37.37 41.91 41.84 39.08 40.23 39.03 35.17 36.33 35.99 38.12 38.81 41.17 43.83 39.99 37.48 31.29 33.03 34.27 35.24 34.63 33.31 32.86 34.30 31.59 31.82 26.19 32.79 31.70
46.33 45.64 45.29 44.92 45.38 46.48 44.30 39.67 39.67 40.94 39.54 42.29 38.85 37.76 35.76 36.09 40.72 39.37 38.57 38.37 40.33 39.49 36.07 37.02 35.58 37.87 36.56 36.04 38.34 36.77 36.87 31.16 31.77 30.71 33.11 32.89 31.08 33.48 34.46 34.82 35.58 36.30 36.16 34.56
46.35 45.35 44.99 44.58 44.94 43.85 39.72 42.55 43.61 41.35 41.17 40.96 36.57 34.37 37.02 38.22 40.53 41.12 41.86 40.96 38.73 37.49 38.20 39.56 39.86 39.06 39.42 39.03 37.14 35.25 34.91 32.33 29.79 27.51 31.59 29.79 24.63 29.45 33.42 33.02 34.31 35.27 30.69 34.55
46.54 45.13 44.73 44.29 44.47 44.38 40.93 41.43 40.28 38.04 37.50 39.23 37.36 38.90 39.66 39.56 41.58 38.54 40.74 40.37 39.00 41.06 42.67 42.37 41.60 39.65 39.42 39.58 38.18 38.58 34.13 31.69 30.17 25.24 27.74 14.14 28.21 35.53 38.05 34.21 35.11 35.98 34.61 34.31
46.51 44.83 44.41 44.02 44.10 44.77 39.08 42.86 40.43 38.93 36.59 39.88 37.77 38.01 38.81 41.02 40.59 40.05 39.91 41.16 41.78 43.50 40.61 35.54 32.29 32.18 34.11 35.77 37.96 37.85 37.65 32.55 27.53 22.13 20.79 24.29 30.38 35.22 34.25 33.99 34.47 37.45 35.59 37.57
46.49 45.06 44.24 43.73 43.63 44.56 39.28 41.24 45.24 41.48 37.86 37.56 39.67 37.77 41.55 36.74 35.43 37.75 38.86 42.19 43.04 41.61 35.47 32.32 28.14 25.69 29.19 29.63 33.71 38.83 36.65 34.30 27.29 24.44 23.35 13.31 28.12 35.16 39.42 39.53 30.85 38.88 39.26 39.99
46.68 45.40 44.29 43.44 43.41 44.32 40.73 40.10 44.84 41.47 38.72 42.05 41.00 37.28 39.95 39.62 37.43 34.55 36.60 38.01 39.63 39.33 31.93 29.64 28.01 27.33 33.86 28.60 29.86 31.82 30.49 28.55 24.06 19.63 23.00 25.75 35.04 40.28 42.57 30.45 27.38 38.95 38.05 36.97
46.46 45.54 44.41 43.21 43.26 44.14 41.52 38.68 44.02 40.21 37.62 40.30 43.37 41.46 39.58 38.45 38.73 34.57 37.75 37.24 38.91 35.54 31.16 29.92 30.01 29.37 31.08 30.72 32.93 32.32 30.50 27.23 22.40 24.71 22.27 16.98 38.86 41.44 33.17 36.55 38.31 38.56 38.09 37.39
46.21 45.44 44.37 42.89 43.11 43.64 42.95 34.94 39.74 42.06 38.41 40.73 45.68 44.73 45.59 44.20 43.02 40.86 37.89 38.33 36.66 37.30 32.84 31.94 32.49 31.13 31.03 30.81 27.66 35.47 28.90 31.58 27.60 28.39 28.14 36.54 42.28 41.90 40.05 39.94 38.69 37.88 38.47 39.20
46.09 45.39 44.20 42.82 42.91 43.32 42.81 37.68 38.19 40.63 40.29 42.20 44.64 43.43 46.92 47.81 45.74 44.99 37.62 37.58 39.54 38.04 39.03 35.15 34.53 32.50 31.85 28.65 29.19 31.86 34.65 36.62 33.13 32.68 36.97 37.33 39.80 40.45 41.62 40.86 40.50 39.80 39.33 38.12
45.89 45.35 44.18 42.89 42.84 43.27 43.21 36.40 38.66 38.43 36.54 36.54 41.29 49.04 45.30 49.06 46.69 45.33 44.32 42.12 41.59 41.51 40.02 37.48 35.55 34.33 36.29 31.22 33.66 31.77 34.05 35.95 33.80 33.96 36.63 39.32 39.04 39.78 38.76 38.76 39.22 38.23 38.10 37.38
45.45 45.27 43.74 43.12 42.85 43.40 41.44 38.03 40.30 41.57 37.58 35.71 38.38 44.36 47.49 47.95 46.27 46.00 45.45 42.40 40.23 38.53 38.51 37.48 35.57 36.03 36.06 34.15 34.21 31.19 36.28 34.49 32.68 32.10 38.08 38.35 38.04 38.85 40.54 37.43 36.94 37.46 36.95 36.27
45.29 44.88 43.52 42.77 42.66 43.00 35.31 37.23 43.58 44.06 41.60 38.49 34.70 46.08 44.39 45.84 45.72 44.47 43.16 42.21 41.09 40.75 38.52 36.71 37.37 40.02 36.33 32.62 30.77 37.57 38.65 38.73 39.55 38.07 42.13 40.19 38.89 38.57 38.64 37.33 37.50 38.13 37.34 36.73
45.01 44.36 43.20 42.36 42.52 37.39 30.51 29.48 39.74 42.86 41.29 38.19 36.49 39.29 44.92 45.46 44.68 42.98 42.03 42.51 41.36 40.43 38.49 37.87 37.41 37.47 37.73 34.21 29.95 38.32 40.07 41.13 40.60 40.27 39.44 35.84 36.84 35.23 38.95 38.69 38.07 37.74 35.86 35.89
44.65 43.58 42.51 42.52 42.64 39.83 34.42 38.73 43.76 43.32 37.63 38.53 36.06 38.48 39.91 43.88 39.45 39.27 41.39 39.85 39.77 39.77 38.20 37.96 36.74 37.69 37.63 33.93 37.10 39.81 41.24 41.14 40.56 40.74 39.32 38.16 38.45 38.52 36.76 36.14 35.36 34.15 33.63 33.89
43.42 41.72 42.01 36.71 34.66 30.50 32.70 42.65 44.73 43.34 41.26 35.62 37.89 36.24 32.82 42.24 39.85 39.90 39.79 38.98 35.46 38.41 36.80 37.03 36.77 34.11 33.55 37.56 38.73 40.13 40.41 39.92 38.27 38.00 38.52 38.87 37.69 36.39 35.40 34.91 34.54 33.69 33.74 33.76
41.75 35.94 31.55 24.59 31.86 41.83 42.08 43.62 40.41 38.12 39.08 39.33 36.29 39.82 36.22 39.93 37.82 37.24 37.09 36.63 34.12 32.25 35.66 38.08 35.06 33.33 39.04 40.84 42.30 42.81 41.30 39.34 38.84 36.27 35.06 36.09 35.74 35.40 34.83 34.29 34.81 34.73 34.43 33.77
33.55 29.26 26.95 32.37 39.88 37.26 38.32 33.36 34.01 36.25 34.82 38.25 38.23 38.83 36.70 41.28 36.37 35.79 37.06 33.61 34.14 30.46 32.87 35.31 31.61 29.68 37.68 40.79 42.11 42.22 41.32 40.27 40.76 40.62 39.84 39.09 38.22 36.08 34.32 33.89 34.59 34.47 33.79 32.82
33.72 31.98 33.90 33.51 34.47 33.84 31.02 30.57 34.61 34.72 32.24 38.42 36.50 38.76 39.93 39.37 40.07 37.34 36.24 34.36 34.50 30.95 35.52 32.00 28.56 33.64 39.61 41.78 42.09 41.58 41.03 40.23 38.97 39.95 38.92 38.39 37.87 36.50 34.71 33.35 32.80 33.76 33.57 33.17
34.39 29.83 22.92 26.79 24.81 24.97 27.24 25.93 29.69 32.82 35.83 37.80 39.24 37.66 39.58 39.36 38.74 35.91 36.14 33.64 31.95 36.48 31.99 30.88 31.93 36.83 41.91 42.82 42.82 41.90 41.04 39.97 39.44 39.13 38.92 37.64 36.13 35.31 34.12 32.33 32.87 33.14 32.37 32.55
27.13 20.45 10.84 18.47 19.52 25.02 30.64 32.79 32.01 36.01 37.48 38.08 38.46 38.84 38.82 37.70 36.49 35.17 33.60 34.96 35.97 30.58 26.78 29.98 33.09 39.99 42.29 43.07 43.51 42.10 38.59 38.89 38.62 37.66 36.99 35.89 35.20 33.33 33.50 33.60 33.82 33.34 31.75 32.01
26.51 23.44 12.31 21.70 26.40 29.64 33.00 34.71 33.93 35.35 39.24 36.41 37.60 41.13 38.78 36.52 35.27 35.39 34.84 33.11 31.95 31.93 30.81 32.09 36.11 42.04 42.89 42.55 42.67 41.44 38.92 38.74 37.69 37.36 36.59 35.26 34.19 34.11 33.69 34.39 34.63 34.47 33.68 31.79
26.57 25.17 22.73 25.68 25.78 26.59 30.68 31.22 30.03 37.22 35.43 36.15 38.60 39.85 35.85 35.07 34.35 32.96 32.71 32.76 31.83 32.18 34.34 35.61 40.78 42.65 43.17 43.02 42.72 41.47 40.29 39.26 38.08 37.75 36.73 35.57 34.47 34.27 34.38 34.64 34.87 34.60 34.40 33.00
25.45 23.78 26.86 25.32 25.46 26.14 27.06 33.62 33.68 37.61 32.31 35.38 36.19 34.06 33.66 34.49 31.46 31.20 34.21 33.43 34.57 34.08 34.56 39.12 42.97 43.14 43.44 43.51 42.31 40.64 39.90 38.73 38.24 36.99 36.56 35.73 34.74 34.50 34.73 33.58 33.63 33.55 33.47 33.73
MSLP
1026.37 1026.00 1025.46 1024.94 1024.27 1023.34 1022.26 1021.72 1020.89 1018.24 1018.07 1018.45 1018.35 1018.00 1016.54 1014.62 1012.58 1011.13 1010.58 1010.05 1010.16 1010.76 1011.75 1012.95 1013.90 1014.65 1015.04 1015.17 1015.24 1015.83 1016.36 1017.03 1017.75 1018.03 1017.93 1018.01 1018.36 1019.46 1020.51 1022.14 1023.34 1023.12 1022.66 1021.50
1026.27 1025.99 1025.55 1024.98 1024.38 1023.93 1023.29 1022.08 1020.83 1018.22 1018.04 1018.18 1018.18 1017.21 1015.99 1014.54 1012.84 1011.57 1010.70 1010.22 1010.29 1010.89 1012.26 1013.59 1014.43 1014.92 1015.30 1015.25 1015.69 1016.24 1016.75 1017.84 1018.73 1019.08 1019.13 1018.97 1019.45 1020.19 1021.14 1022.17 1022.88 1023.25 1023.02 1022.01
1026.19 1025.93 1025.48 1024.95 1024.25 1023.73 1023.33 1022.38 1021.09 1018.87 1018.36 1017.71 1017.43 1016.97 1015.80 1014.40 1012.44 1011.75 1011.00 1010.48 1010.38 1011.30 1012.81 1013.68 1014.83 1015.23 1015.47 1015.63 1016.13 1016.54 1017.00 1018.68 1019.15 1019.88 1020.04 1020.31 1020.53 1020.93 1020.98 1021.82 1022.58 1022.79 1022.54 1021.92
1026.15 1025.91 1025.53 1024.98 1024.13 1023.24 1022.93 1022.06 1021.00 1019.65 1018.28 1017.43 1017.11 1016.66 1015.86 1014.45 1012.93 1011.72 1010.94 1010.98 1010.99 1011.64 1013.31 1014.32 1015.10 1015.53 1015.88 1016.10 1016.47 1016.90 1017.84 1019.82 1020.12 1020.49 1020.86 1020.82 1020.97 1020.93 1020.93 1021.51 1021.66 1022.09 1022.36 1022.07
1026.03 1025.87 1025.63 1025.12 1024.26 1023.14 1022.76 1022.17 1021.25 1020.28 1019.08 1017.78 1017.23 1016.72 1015.93 1014.69 1013.21 1012.24 1011.50 1011.56 1011.89 1012.19 1013.06 1013.67 1014.92 1015.39 1016.01 1016.31 1016.87 1017.57 1018.60 1020.33 1020.64 1021.47 1021.32 1021.15 1021.22 1020.97 1021.02 1021.32 1021.54 1021.74 1022.00 1022.23
1025.93 1025.91 1025.75 1025.30 1024.75 1024.06 1023.84 1023.10 1021.95 1021.14 1019.17 1018.05 1017.61 1016.86 1016.06 1014.83 1014.06 1012.55 1012.17 1011.93 1012.46 1013.17 1013.55 1013.82 1014.33 1015.08 1015.62 1016.16 1017.02 1018.14 1019.06 1020.38 1021.23 1021.97 1021.72 1021.60 1021.55 1020.84 1020.85 1021.08 1021.14 1021.31 1021.64 1021.75
1025.84 1025.84 1025.76 1025.42 1025.17 1024.91 1025.08 1024.29 1023.41 1021.57 1019.51 1018.56 1017.88 1017.05 1016.48 1015.50 1014.39 1013.47 1012.97 1012.77 1012.83 1014.05 1013.93 1014.12 1015.01 1015.88 1016.51 1016.71 1017.45 1017.83 1019.39 1020.46 1021.57 1022.62 1022.45 1022.40 1021.42 1020.56 1020.42 1021.02 1021.30 1021.29 1021.49 1021.84
1025.74 1025.75 1025.70 1025.45 1025.23 1024.87 1024.84 1024.15 1023.49 1021.93 1020.25 1019.17 1018.02 1017.30 1016.52 1015.42 1014.33 1013.74 1013.61 1013.56 1013.49 1013.71 1014.40 1015.81 1016.89 1017.67 1017.76 1017.89 1018.19 1018.40 1018.87 1020.43 1022.19 1023.04 1023.18 1022.75 1021.29 1020.59 1020.44 1020.67 1021.44 1021.52 1021.82 1022.31
1025.62 1025.66 1025.65 1025.43 1025.10 1024.70 1024.47 1023.83 1023.25 1022.40 1020.97 1019.29 1018.66 1017.72 1016.83 1016.26 1015.22 1014.54 1014.29 1014.14 1014.00 1014.31 1015.76 1016.94 1018.12 1018.57 1018.46 1018.61 1018.80 1019.02 1019.62 1020.39 1021.96 1023.42 1023.37 1022.80 1021.39 1020.35 1020.12 1020.44 1021.41 1021.64 1022.07 1022.58
1025.51 1025.54 1025.57 1025.42 1025.08 1024.66 1024.45 1023.89 1023.24 1022.55 1021.13 1019.41 1018.90 1018.29 1017.61 1017.02 1016.25 1015.60 1015.12 1014.86 1014.83 1015.15 1016.72 1017.99 1018.74 1018.95 1018.73 1018.98 1019.19 1019.51 1020.39 1021.59 1022.76 1023.40 1023.27 1022.39 1020.93 1020.27 1020.16 1021.30 1022.44 1022.18 1022.49 1023.06
1025.37 1025.39 1025.45 1025.37 1025.08 1024.70 1024.46 1023.97 1023.36 1023.35 1021.77 1019.83 1018.82 1018.51 1018.22 1017.58 1016.84 1016.17 1015.82 1015.81 1015.79 1016.43 1017.48 1018.42 1019.07 1019.18 1019.17 1019.26 1019.39 1019.70 1020.58 1021.80 1022.92 1023.50 1023.08 1022.25 1020.86 1020.53 1021.14 1021.92 1022.65 1023.09 1023.41 1023.82
1025.24 1025.26 1025.30 1025.23 1025.01 1024.68 1024.36 1024.30 1023.47 1023.06 1022.53 1020.08 1018.75 1017.77 1017.16 1017.00 1016.50 1016.61 1016.17 1016.14 1016.07 1016.43 1017.61 1018.62 1019.04 1019.47 1019.65 1019.82 1020.14 1019.97 1020.88 1021.27 1021.90 1022.93 1022.68 1021.65 1021.05 1021.06 1021.63 1022.15 1023.10 1023.87 1024.13 1024.68
1025.06 1025.09 1025.15 1025.07 1024.84 1024.63 1024.43 1024.29 1023.85 1022.95 1021.73 1019.62 1018.15 1016.67 1015.84 1015.74 1016.03 1016.03 1016.24 1016.04 1015.86 1016.26 1016.51 1017.77 1018.68 1019.25 1019.75 1020.27 1020.34 1020.37 1020.73 1020.91 1021.83 1022.38 1022.62 1022.22 1022.04 1022.31 1022.57 1023.06 1023.47 1024.35 1025.03 1025.52
1024.89 1024.87 1024.94 1024.95 1024.74 1024.37 1024.18 1024.45 1023.77 1023.80 1022.65 1020.65 1017.82 1016.20 1015.84 1015.16 1015.24 1015.60 1015.70 1015.74 1015.89 1016.16 1016.61 1017.52 1018.44 1019.17 1019.60 1020.11 1020.03 1020.39 1020.67 1020.90 1021.88 1022.78 1022.91 1022.59 1023.11 1023.22 1023.72 1024.14 1024.65 1025.26 1025.84 1026.25
1024.76 1024.70 1024.79 1024.75 1024.58 1024.24 1023.79 1023.60 1023.24 1023.21 1023.32 1021.35 1019.07 1017.04 1015.41 1014.75 1014.69 1014.97 1015.33 1015.66 1015.94 1016.54 1017.14 1017.89 1018.81 1018.95 1019.61 1020.17 1020.21 1020.58 1020.39 1020.67 1021.46 1021.89 1022.06 1022.28 1023.46 1023.95 1024.42 1024.90 1025.65 1026.09 1026.42 1027.05
1024.59 1024.55 1024.64 1024.63 1024.47 1024.15 1023.88 1023.46 1023.08 1022.96 1023.15 1021.86 1019.61 1017.47 1015.96 1015.03 1014.56 1014.85 1015.14 1015.56 1015.91 1016.51 1017.30 1018.30 1018.64 1018.58 1018.98 1019.94 1020.39 1020.01 1019.97 1020.10 1019.92 1021.08 1021.67 1022.33 1023.56 1024.51 1025.15 1025.63 1026.23 1026.64 1027.08 1027.52
1024.42 1024.44 1024.48 1024.47 1024.39 1024.59 1024.41 1023.89 1023.22 1022.87 1023.19 1022.03 1019.81 1017.56 1015.72 1014.91 1014.89 1015.29 1015.56 1015.71 1016.21 1016.51 1017.65 1018.26 1018.58 1018.78 1018.74 1019.62 1020.05 1019.83 1020.03 1020.03 1020.36 1021.00 1022.06 1023.65 1024.31 1025.30 1025.80 1026.17 1026.73 1027.22 1027.70 1028.12
1024.30 1024.36 1024.36 1024.22 1024.04 1023.97 1023.85 1022.95 1022.76 1022.77 1022.86 1021.99 1020.05 1018.04 1016.62 1015.25 1015.53 1016.05 1016.13 1016.35 1016.62 1017.19 1017.91 1018.41 1018.58 1018.89 1018.94 1019.51 1019.62 1019.79 1020.11 1020.38 1021.10 1021.77 1021.97 1022.95 1024.62 1025.61 1026.36 1026.82 1027.32 1027.93 1028.39 1028.73
1024.25 1024.37 1024.25 1024.36 1024.25 1024.11 1023.23 1022.58 1022.51 1022.44 1022.69 1021.50 1019.95 1018.33 1016.97 1015.76 1016.04 1016.28 1016.46 1016.62 1017.35 1017.80 1018.04 1018.30 1018.60 1019.10 1019.00 1018.71 1019.23 1019.62 1019.92 1020.32 1021.58 1022.21 1022.91 1024.06 1025.08 1026.16 1026.81 1027.35 1027.94 1028.37 1028.83 1029.19
1024.39 1024.64 1024.91 1024.61 1023.96 1023.24 1022.89 1022.17 1022.13 1022.18 1021.73 1021.29 1019.90 1018.60 1017.37 1016.49 1016.46 1016.75 1017.07 1017.26 1017.79 1018.14 1018.35 1018.35 1018.50 1018.78 1018.43 1018.33 1018.52 1018.97 1019.62 1020.29 1021.21 1022.43 1023.89 1024.78 1025.75 1026.37 1027.03 1027.53 1027.93 1028.44 1028.88 1029.44
1024.74 1025.10 1025.15 1024.36 1023.60 1023.29 1022.82 1022.33 1021.55 1021.08 1020.50 1020.10 1018.98 1018.11 1017.28 1016.34 1016.39 1016.71 1017.11 1017.54 1017.90 1018.24 1018.36 1018.50 1018.94 1018.88 1018.35 1018.37 1018.71 1019.06 1019.50 1020.16 1020.71 1021.25 1022.70 1024.00 1024.92 1026.03 1026.99 1027.69 1028.14 1028.64 1029.12 1029.66
1024.59 1024.78 1024.67 1024.52 1024.04 1023.51 1023.02 1021.91 1021.07 1020.38 1019.53 1018.82 1018.42 1017.39 1017.13 1016.48 1016.13 1016.40 1017.22 1017.41 1017.91 1018.10 1018.12 1018.66 1018.67 1017.37 1017.18 1017.86 1018.50 1019.09 1019.64 1020.34 1021.24 1022.03 1023.30 1024.47 1025.28 1025.97 1026.71 1027.38 1028.17 1028.91 1029.43 1029.86
1024.76 1025.08 1025.33 1024.99 1024.60 1023.86 1022.69 1021.46 1020.58 1019.71 1018.90 1018.41 1017.76 1017.03 1016.32 1016.41 1016.16 1016.46 1016.85 1017.27 1017.83 1017.68 1018.25 1018.12 1016.99 1016.36 1016.74 1017.32 1018.14 1019.05 1019.76 1020.43 1021.53 1022.86 1023.79 1024.74 1025.47 1026.21 1026.75 1027.52 1028.33 1028.98 1029.56 1029.85
1025.27 1025.55 1025.92 1025.28 1024.33 1023.25 1021.95 1021.33 1020.77 1020.05 1019.12 1018.29 1017.63 1016.90 1015.90 1015.87 1016.16 1016.39 1016.75 1016.99 1017.23 1017.85 1017.94 1017.00 1015.71 1015.56 1016.05 1016.84 1017.68 1018.69 1019.78 1020.68 1021.88 1023.04 1024.00 1024.91 1025.62 1026.42 1027.13 1027.71 1028.37 1028.94 1029.53 1029.90
1025.16 1025.32 1025.06 1024.44 1023.40 1022.65 1021.98 1021.54 1020.96 1020.19 1019.48 1018.72 1017.63 1016.72 1016.20 1015.75 1015.81 1016.05 1016.49 1016.96 1016.83 1016.71 1016.01 1015.00 1014.28 1014.69 1015.39 1016.36 1017.34 1018.38 1019.64 1020.87 1022.04 1023.04 1023.98 1024.90 1025.70 1026.46 1027.31 1027.86 1028.43 1028.88 1029.42 1029.92
1024.90 1024.70 1024.34 1023.73 1023.52 1022.79 1021.94 1021.30 1020.65 1020.09 1019.59 1018.77 1017.99 1016.86 1016.33 1015.43 1015.18 1015.59 1015.47 1015.78 1015.44 1014.62 1014.32 1013.59 1013.73 1014.15 1014.91 1015.85 1016.95 1018.08 1019.33 1020.61 1021.78 1022.84 1023.70 1024.60 1025.46 1026.23 1027.06 1027.83 1028.38 1028.82 1029.20 1029.73
1024.50 1024.00 1023.62 1023.65 1023.45 1022.99 1022.10 1021.25 1020.56 1020.22 1020.21 1019.18 1018.22 1016.97 1015.85 1014.68 1014.43 1014.59 1014.45 1014.19 1013.42 1013.19 1013.31 1013.23 1013.12 1013.45 1014.34 1015.47 1016.78 1018.06 1019.26 1020.55 1021.54 1022.65 1023.62 1024.37 1025.31 1026.19 1027.07 1027.78 1028.21 1028.65 1029.04 1029.43
Wind_Speed
13 15 18 20 22 24 8 3 4 3 1 3 1 4 6 6 6 3 5 2 2 3 3 4 4 4 1 2 0 2 2 4 4 2 2 3 3 3 3 6 4 0 2 6
12 15 17 20 20 19 6 4 4 4 1 4 2 5 5 5 4 4 4 1 2 3 4 7 3 3 2 4 3 3 2 3 3 3 6 5 5 4 4 5 3 1 3 5
11 14 17 20 21 21 6 3 4 3 4 2 5 4 5 5 5 6 5 2 3 4 5 6 5 3 1 3 3 4 6 4 3 5 2 2 2 3 2 4 3 2 1 2
9 12 16 19 22 23 2 3 4 3 3 2 3 2 2 3 4 5 2 2 3 5 5 3 4 3 3 3 2 4 5 4 3 6 3 3 2 4 4 2 3 3 4 3
8 11 14 17 21 23 2 3 3 4 5 6 1 4 4 4 5 3 2 5 2 2 7 7 9 8 3 4 3 4 3 3 3 2 1 6 4 5 5 5 6 8 6 1
7 8 11 15 18 13 3 4 4 4 4 3 1 3 3 6 4 1 3 8 7 5 0 4 6 4 5 7 7 3 3 6 3 2 2 2 4 1 3 3 4 1 2 3
7 7 9 12 14 10 2 2 4 4 3 2 2 4 3 10 5 3 2 3 6 2 5 7 9 11 8 8 6 3 5 4 3 2 3 2 7 2 2 6 3 4 3 4
6 5 7 10 12 13 1 2 3 4 4 5 6 6 5 7 3 2 2 3 1 8 6 7 6 6 5 4 6 4 3 5 4 4 2 4 5 5 5 3 1 1 2 0
7 5 6 10 13 14 2 3 3 3 4 2 6 5 4 3 4 3 3 4 3 6 4 4 4 4 4 3 2 4 6 6 6 1 2 3 6 4 2 3 1 1 5 6
8 6 5 8 12 14 5 3 2 4 3 3 6 3 4 4 3 2 3 2 2 4 3 3 3 2 5 4 6 4 2 4 4 1 1 5 4 0 2 2 6 4 4 4
9 7 4 7 10 13 6 5 3 3 4 7 4 3 4 5 2 2 2 4 4 4 4 3 2 3 3 3 3 4 5 5 2 2 4 3 1 4 1 3 6 5 7 7
9 6 4 6 9 11 9 3 3 5 4 6 5 15 18 13 14 1 2 3 3 4 5 1 3 2 2 3 2 3 2 4 5 4 5 5 4 5 4 5 6 2 4 5
9 7 5 6 9 10 8 4 4 3 4 5 3 4 4 3 8 6 2 2 2 1 3 5 3 4 4 3 3 4 4 3 5 4 6 5 10 9 7 4 9 9 8 8
9 7 5 5 9 12 11 2 2 2 4 4 5 5 8 4 5 7 5 2 2 5 2 3 3 3 2 3 3 4 4 4 5 4 5 11 9 8 7 11 11 12 9 8
9 8 6 6 9 13 9 3 2 3 3 3 6 13 5 7 5 8 7 4 3 2 3 3 2 2 4 1 3 1 3 7 5 5 7 7 4 6 8 12 10 8 9 7
8 8 6 6 9 12 3 1 1 4 3 4 4 5 6 5 4 5 5 2 3 3 4 2 1 0 4 3 1 1 1 2 6 6 5 9 11 8 6 10 7 7 7 7
8 7 5 6 7 2 1 3 3 6 4 4 4 4 4 4 2 3 3 3 2 3 3 2 3 1 3 3 3 3 5 10 15 18 17 10 5 7 8 10 8 9 7 6
7 4 5 9 11 7 4 3 7 1 2 3 3 4 4 2 1 2 2 2 3 5 3 1 3 1 2 2 1 6 9 14 14 9 8 12 13 12 9 7 8 8 7 6
6 1 7 4 2 1 4 8 12 2 2 3 3 2 3 3 1 1 3 2 3 1 2 1 3 0 2 6 12 15 17 10 11 12 15 15 15 12 9 8 7 7 6 5
7 5 3 4 3 8 10 1 2 3 3 4 3 3 4 2 1 2 2 2 2 2 2 2 2 3 2 7 12 15 11 18 18 18 10 12 12 12 9 7 6 6 6 6
2 0 3 4 8 2 2 3 3 2 3 4 4 3 2 1 3 3 1 2 1 2 4 4 1 3 4 8 12 10 15 18 18 18 15 14 15 13 10 7 7 7 7 6
5 3 1 3 2 1 2 3 2 4 4 4 3 4 5 3 1 3 1 3 1 3 3 4 3 5 8 14 14 13 14 12 11 13 14 12 13 10 9 8 8 7 6 7
3 3 4 3 3 2 4 4 2 2 1 2 3 3 4 0 1 3 3 3 4 3 2 5 6 6 14 16 14 13 11 12 14 12 13 12 10 8 8 9 6 8 7 6
2 4 3 5 3 5 3 3 4 4 4 8 5 3 3 2 3 3 3 2 4 2 2 7 4 13 17 16 15 15 14 15 16 15 14 13 12 9 8 7 8 9 8 7
3 4 5 6 4 2 2 0 4 3 6 8 5 1 2 2 4 3 4 3 4 6 7 5 5 16 18 17 16 17 15 14 15 14 14 13 11 11 9 7 7 7 7 7
2 3 2 3 2 2 1 1 3 3 6 7 4 3 3 5 4 4 7 7 7 6 5 4 10 18 18 18 16 16 15 15 15 14 14 13 12 12 10 7 7 7 8 8
3 4 3 3 2 3 3 2 2 2 4 4 5 4 7 1 4 4 5 6 5 4 3 4 13 19 19 18 16 15 16 15 15 13 13 12 8 10 10 9 7 7 6 7
Wind_Direction
333 339 342 344 349 346 3 319 311 338 115 100 174 188 210 292 282 263 270 173 104 121 100 85 93 120 63 351 92 73 0 118 64 129 224 24 70 103 98 110 282 276 161 291
330 338 340 343 347 356 317 306 279 304 207 173 228 266 272 262 307 307 318 206 118 84 109 95 99 105 52 50 78 141 179 30 91 331 345 354 42 31 89 92 108 207 118 290
326 336 341 343 345 344 327 281 306 280 221 202 156 212 263 266 246 259 250 239 100 94 65 28 133 114 84 63 88 89 90 61 131 172 189 198 2 328 108 121 109 192 277 23
322 336 342 346 346 339 296 226 254 332 307 270 206 46 288 276 252 218 233 28 69 135 110 86 103 114 115 60 96 61 89 82 92 74 87 82 190 37 42 181 229 126 101 68
314 334 344 351 354 343 290 316 323 338 287 283 251 170 258 246 273 237 254 142 58 95 147 173 182 138 157 173 42 71 29 137 99 111 140 56 67 47 69 74 87 114 118 125
302 329 346 357 3 11 347 340 322 275 288 322 109 223 254 279 8 357 329 151 106 57 25 114 112 111 117 145 127 116 96 145 108 220 353 359 3 24 48 48 50 148 229 208
283 319 345 355 3 19 310 283 283 278 290 313 298 310 313 273 262 261 3 64 95 113 142 95 53 49 68 79 49 114 121 104 88 167 15 6 242 306 149 110 31 21 65 164
267 306 339 345 353 352 220 265 282 302 294 318 290 317 264 285 327 102 101 353 317 145 61 75 59 4 31 50 31 58 110 113 92 127 186 261 339 153 148 170 48 316 206 357
264 288 327 337 345 350 317 260 255 280 314 213 320 313 319 335 347 34 33 37 62 64 78 81 121 176 165 194 80 86 71 75 107 117 110 183 242 292 132 107 254 124 146 221
274 274 309 332 341 349 345 276 304 271 275 294 3 324 333 332 349 100 11 30 48 50 71 87 131 171 176 156 166 167 40 33 122 110 120 293 261 352 60 71 246 16 29 51
287 264 292 325 339 350 1 276 289 337 309 278 263 287 328 331 288 110 236 57 355 46 69 113 177 122 202 92 183 171 149 129 185 82 69 329 330 63 336 185 24 95 96 119
290 257 276 316 336 348 11 307 307 304 229 275 290 265 250 231 234 292 301 182 169 175 93 84 117 111 82 140 199 27 53 166 159 149 201 245 356 86 52 97 114 69 84 92
284 251 267 309 328 338 356 299 296 304 277 270 271 280 311 181 214 189 162 298 173 139 165 150 146 106 122 144 231 102 354 124 90 86 358 62 76 69 77 79 102 85 79 86
277 248 260 302 323 328 334 262 229 219 270 281 294 334 301 265 182 189 202 270 47 101 80 95 107 115 158 184 155 126 189 101 120 67 96 85 53 72 90 90 85 85 78 89
267 244 263 306 327 330 317 250 251 254 309 320 295 306 258 277 209 201 187 169 129 104 63 64 109 113 105 5 86 81 175 161 142 198 188 114 141 114 109 96 99 102 105 83
254 242 265 311 336 347 351 356 141 56 358 275 309 312 286 313 89 100 97 112 95 87 112 121 110 103 104 98 115 262 204 171 158 130 110 113 112 93 83 109 109 103 100 106
239 235 273 311 323 33 190 230 295 327 7 270 282 286 279 321 66 45 46 41 72 94 104 72 129 98 87 100 142 170 153 125 113 117 110 79 112 124 108 110 106 103 93 94
219 230 298 307 310 302 279 252 235 154 210 273 283 275 307 347 49 67 347 66 33 17 120 66 104 39 67 98 143 127 128 117 120 118 73 120 111 107 107 109 113 108 107 102
185 13 320 356 43 308 247 279 311 177 298 302 286 294 239 355 41 62 35 49 61 305 99 158 89 351 195 181 148 144 142 144 131 113 114 117 121 129 130 126 124 123 124 119
107 44 29 319 238 299 309 114 222 174 188 229 257 281 266 84 4 45 79 19 132 124 247 100 92 229 290 157 154 145 139 131 132 121 122 127 133 146 152 159 147 137 142 134
58 99 237 254 311 334 234 282 237 181 222 197 247 246 282 266 121 149 125 167 128 133 246 129 190 275 200 153 144 151 146 150 160 155 150 152 149 154 147 150 145 140 141 142
188 186 317 340 346 281 274 250 218 227 229 188 216 222 207 267 142 104 223 122 76 225 145 96 228 238 157 154 156 158 156 145 130 137 132 135 144 151 147 148 145 147 133 137
46 41 24 39 293 239 232 221 239 216 223 280 265 247 189 42 68 77 117 135 215 108 103 220 224 171 161 160 157 155 154 139 125 124 124 132 135 135 147 144 132 131 137 154
142 132 282 167 221 239 230 360 343 326 296 318 312 263 196 176 118 139 143 176 112 167 235 232 206 174 164 160 163 151 156 144 135 136 138 142 152 152 137 139 139 142 151 162
197 130 221 208 245 307 306 281 297 324 338 340 316 277 256 178 138 181 115 129 231 211 225 227 177 167 162 161 163 159 151 141 138 145 147 153 154 154 149 153 152 151 139 146
205 229 256 242 352 278 251 238 283 12 341 301 225 243 269 209 151 142 204 162 218 243 218 214 156 164 165 164 164 158 148 146 146 153 155 156 160 160 161 144 160 168 163 163
236 236 208 240 295 238 249 248 300 340 19 319 308 221 231 124 148 198 179 205 213 216 228 181 174 168 167 161 154 151 145 147 150 150 158 164 139 129 143 163 184 169 173 171